Meteo pe oră la Abazivka

Astăzi, 5 August, Joi

Timp Temperatura Precipitaţii Vânt Presiune Umiditate
00:00 +20°C° 0 mm 2 m/s 752 mmHg 47%
01:00 +20°C° 0 mm 2 m/s 752 mmHg 48%
02:00 +20°C° 0 mm 2 m/s 752 mmHg 50%
03:00 +20°C° 0 mm 2 m/s 752 mmHg 52%
04:00 +20°C° 0 mm 2 m/s 751 mmHg 54%
05:00 +19°C° 0 mm 2 m/s 751 mmHg 56%
06:00 +21°C° 0 mm 2 m/s 751 mmHg 52%
07:00 +24°C° 0 mm 2 m/s 751 mmHg 48%
08:00 +26°C° 0 mm 2 m/s 751 mmHg 44%
09:00 +28°C° 0 mm 3 m/s 751 mmHg 41%
10:00 +29°C° 0 mm 3 m/s 751 mmHg 37%
11:00 +32°C° 0 mm 4 m/s 751 mmHg 33%
12:00 +32°C° 0 mm 4 m/s 750 mmHg 32%
13:00 +33°C° 0 mm 3 m/s 750 mmHg 31%
14:00 +33°C° 0 mm 3 m/s 750 mmHg 30%
15:00 +33°C° 0 mm 3 m/s 749 mmHg 31%
16:00 +33°C° 0 mm 3 m/s 749 mmHg 32%
17:00 +31°C° 0 mm 3 m/s 749 mmHg 34%
18:00 +29°C° 0 mm 3 m/s 749 mmHg 38%
19:00 +28°C° 0 mm 3 m/s 748 mmHg 42%
20:00 +26°C° 0 mm 3 m/s 748 mmHg 46%
21:00 +25°C° 0 mm 3 m/s 748 mmHg 48%
22:00 +24°C° 0 mm 3 m/s 748 mmHg 49%
23:00 +24°C° 0 mm 3 m/s 748 mmHg 50%

Mâine, 6 August, Vineri

Timp Temperatura Precipitaţii Vânt Presiune Umiditate
00:00 +22°C° 0 mm 3 m/s 747 mmHg 51%
01:00 +22°C° 0 mm 3 m/s 747 mmHg 52%
02:00 +21°C° 0 mm 3 m/s 747 mmHg 53%
03:00 +21°C° 0 mm 3 m/s 747 mmHg 53%
04:00 +21°C° 0 mm 3 m/s 746 mmHg 53%
05:00 +21°C° 0 mm 3 m/s 746 mmHg 53%
06:00 +24°C° 0 mm 3 m/s 746 mmHg 48%
07:00 +27°C° 0 mm 3 m/s 746 mmHg 43%
08:00 +29°C° 0 mm 3 m/s 746 mmHg 38%
09:00 +32°C° 0 mm 4 m/s 745 mmHg 35%
10:00 +34°C° 0 mm 5 m/s 745 mmHg 32%
11:00 +36°C° 0 mm 5 m/s 745 mmHg 28%
12:00 +36°C° 0 mm 6 m/s 745 mmHg 29%
13:00 +38°C° 0 mm 6 m/s 744 mmHg 30%
14:00 +39°C° 0 mm 6 m/s 744 mmHg 31%
15:00 +38°C° 0.1 mm 6 m/s 743 mmHg 33%
16:00 +36°C° 0.1 mm 5 m/s 743 mmHg 35%
17:00 +35°C° 0.1 mm 5 m/s 743 mmHg 37%
18:00 +32°C° 0.6 mm 4 m/s 743 mmHg 48%
19:00 +28°C° 0.6 mm 4 m/s 743 mmHg 60%
20:00 +25°C° 0.6 mm 4 m/s 743 mmHg 72%
21:00 +24°C° 0.2 mm 3 m/s 743 mmHg 74%
22:00 +22°C° 0.2 mm 3 m/s 743 mmHg 77%
23:00 +22°C° 0.2 mm 3 m/s 743 mmHg 80%

Poimâine, 7 August, Sâmbătă

Timp Temperatura Precipitaţii Vânt Presiune Umiditate
00:00 +21°C° 0.2 mm 3 m/s 743 mmHg 80%
01:00 +21°C° 0.2 mm 3 m/s 743 mmHg 80%
02:00 +21°C° 0.2 mm 3 m/s 743 mmHg 80%
03:00 +21°C° 0 mm 3 m/s 743 mmHg 81%
04:00 +20°C° 0 mm 3 m/s 743 mmHg 81%
05:00 +20°C° 0 mm 3 m/s 743 mmHg 82%
06:00 +22°C° 0 mm 3 m/s 743 mmHg 73%
07:00 +25°C° 0 mm 2 m/s 743 mmHg 65%
08:00 +27°C° 0 mm 2 m/s 744 mmHg 57%
09:00 +29°C° 0 mm 2 m/s 744 mmHg 52%
10:00 +31°C° 0 mm 2 m/s 744 mmHg 47%
11:00 +32°C° 0 mm 2 m/s 744 mmHg 43%
12:00 +34°C° 0 mm 2 m/s 744 mmHg 41%
13:00 +35°C° 0 mm 2 m/s 744 mmHg 39%
14:00 +36°C° 0 mm 2 m/s 744 mmHg 36%
15:00 +35°C° 0 mm 3 m/s 744 mmHg 37%
16:00 +35°C° 0 mm 3 m/s 744 mmHg 38%
17:00 +35°C° 0 mm 3 m/s 744 mmHg 38%
18:00 +32°C° 0.4 mm 4 m/s 745 mmHg 49%
19:00 +28°C° 0.4 mm 5 m/s 745 mmHg 60%
20:00 +24°C° 0.4 mm 6 m/s 746 mmHg 70%
21:00 +23°C° 0.4 mm 6 m/s 746 mmHg 75%
22:00 +22°C° 0.4 mm 6 m/s 747 mmHg 80%
23:00 +21°C° 0.4 mm 5 m/s 747 mmHg 85%

8 August, Duminică

Timp Temperatura Precipitaţii Vânt Presiune Umiditate
00:00 +21°C° 0.8 mm 5 m/s 747 mmHg 87%
01:00 +20°C° 0.8 mm 5 m/s 748 mmHg 89%
02:00 +20°C° 0.8 mm 4 m/s 748 mmHg 90%
03:00 +20°C° 0 mm 4 m/s 748 mmHg 91%
04:00 +19°C° 0 mm 4 m/s 748 mmHg 92%
05:00 +19°C° 0 mm 4 m/s 748 mmHg 92%
06:00 +20°C° 0 mm 5 m/s 748 mmHg 85%
07:00 +22°C° 0 mm 5 m/s 749 mmHg 77%
08:00 +24°C° 0 mm 6 m/s 749 mmHg 69%
09:00 +26°C° 0 mm 6 m/s 749 mmHg 62%
10:00 +28°C° 0 mm 6 m/s 749 mmHg 54%
11:00 +30°C° 0 mm 6 m/s 749 mmHg 47%
12:00 +30°C° 0 mm 6 m/s 749 mmHg 44%
13:00 +32°C° 0 mm 6 m/s 749 mmHg 42%
14:00 +33°C° 0 mm 6 m/s 749 mmHg 39%
15:00 +32°C° 0 mm 6 m/s 749 mmHg 40%
16:00 +32°C° 0 mm 6 m/s 749 mmHg 41%
17:00 +32°C° 0 mm 5 m/s 749 mmHg 42%
18:00 +29°C° 0 mm 5 m/s 750 mmHg 47%
19:00 +27°C° 0 mm 5 m/s 750 mmHg 51%
20:00 +26°C° 0 mm 4 m/s 750 mmHg 56%
21:00 +23°C° 0 mm 4 m/s 751 mmHg 61%
22:00 +22°C° 0 mm 4 m/s 751 mmHg 66%
23:00 +21°C° 0 mm 3 m/s 751 mmHg 71%

9 August, Luni

Timp Temperatura Precipitaţii Vânt Presiune Umiditate
00:00 +21°C° 0 mm 3 m/s 751 mmHg 76%
01:00 +20°C° 0 mm 3 m/s 751 mmHg 80%
02:00 +20°C° 0 mm 3 m/s 751 mmHg 85%
03:00 +19°C° 0 mm 3 m/s 751 mmHg 86%
04:00 +19°C° 0 mm 3 m/s 751 mmHg 87%
05:00 +19°C° 0 mm 3 m/s 751 mmHg 88%
06:00 +21°C° 0 mm 3 m/s 751 mmHg 76%
07:00 +24°C° 0 mm 3 m/s 751 mmHg 65%
08:00 +26°C° 0 mm 3 m/s 751 mmHg 54%
09:00 +28°C° 0 mm 3 m/s 751 mmHg 49%
10:00 +30°C° 0 mm 3 m/s 751 mmHg 44%
11:00 +31°C° 0 mm 2 m/s 751 mmHg 39%
12:00 +32°C° 0 mm 2 m/s 751 mmHg 36%
13:00 +34°C° 0 mm 2 m/s 751 mmHg 34%
14:00 +35°C° 0 mm 2 m/s 751 mmHg 32%
15:00 +34°C° 0 mm 2 m/s 751 mmHg 32%
16:00 +34°C° 0 mm 3 m/s 751 mmHg 32%
17:00 +34°C° 0 mm 3 m/s 751 mmHg 32%
18:00 +31°C° 0 mm 3 m/s 751 mmHg 36%
19:00 +29°C° 0 mm 3 m/s 751 mmHg 41%
20:00 +27°C° 0 mm 3 m/s 751 mmHg 46%
21:00 +26°C° 0 mm 2 m/s 751 mmHg 48%
22:00 +25°C° 0 mm 2 m/s 751 mmHg 51%
23:00 +24°C° 0 mm 2 m/s 752 mmHg 54%

10 August, Marţi

Timp Temperatura Precipitaţii Vânt Presiune Umiditate
00:00 +24°C° 0 mm 2 m/s 752 mmHg 56%
01:00 +23°C° 0 mm 2 m/s 752 mmHg 57%
02:00 +23°C° 0 mm 1 m/s 752 mmHg 59%
03:00 +22°C° 0 mm 1 m/s 752 mmHg 60%
04:00 +22°C° 0 mm 1 m/s 752 mmHg 62%
05:00 +22°C° 0 mm 1 m/s 752 mmHg 63%
06:00 +24°C° 0 mm 1 m/s 752 mmHg 57%
07:00 +27°C° 0 mm 1 m/s 752 mmHg 50%
08:00 +29°C° 0 mm 2 m/s 752 mmHg 44%
09:00 +30°C° 0 mm 2 m/s 752 mmHg 39%
10:00 +32°C° 0 mm 2 m/s 752 mmHg 35%
11:00 +34°C° 0 mm 2 m/s 751 mmHg 31%
12:00 +35°C° 0 mm 2 m/s 751 mmHg 29%
13:00 +35°C° 0 mm 2 m/s 751 mmHg 27%
14:00 +36°C° 0 mm 3 m/s 750 mmHg 24%
15:00 +36°C° 0 mm 3 m/s 750 mmHg 25%
16:00 +35°C° 0 mm 3 m/s 750 mmHg 25%
17:00 +35°C° 0 mm 3 m/s 750 mmHg 25%
18:00 +33°C° 0 mm 3 m/s 750 mmHg 30%
19:00 +29°C° 0 mm 2 m/s 750 mmHg 34%
20:00 +27°C° 0 mm 2 m/s 750 mmHg 39%
21:00 +26°C° 0 mm 2 m/s 750 mmHg 41%
22:00 +26°C° 0 mm 2 m/s 750 mmHg 44%
23:00 +25°C° 0 mm 2 m/s 749 mmHg 46%
Arată mai mult

Formular de consimțământ

Meteoprog și furnizorii noștri de servicii pot stoca și accesa date personale, precum cookies, identificatori de dispozitiv sau alte tehnologii similare pe dispozitivul dumneavoastră și procesa astfel de date pentru a personaliza conținutul și reclamele, dar și pentru a oferi caracteristici de social media și pentru a analiza traficul.

  • Stocarea și/sau accesarea informațiilor pe dispozitivul dumneavoastră

    Cookies, identificatori de dispozitiv sau alte informații pot fi stocate sau accesate pe dispozitiv în scopurile indicate mai sus.

  • Reclame și conținut personalizat, evaluarea reclamelor și a conținutului, informații despre audiențe și dezvoltarea produselor

    Reclamele și conținutul pot fi personalizate pe baza unui profil. Pot fi adăugate date suplimentare pentru a personaliza mai bine reclamele și conținutul. Performanța reclamelor și conținutului poate fi măsurată. Pot fi obținute informații despre utilizatorii care au văzut reclamele și conținutul. Aceste date pot fi utilizate pentru a dezvolta sau îmbunătăți experiența utilizatorilor, sistemele și software-ul.

Dând clic pe ‘Sunt de acord’, permiteți utilizarea cookie-urilor menționate, a identificatorilor de dispozitiv, balizelor web sau altor tehnologii similare. Setările pot fi modificate din browser-ul dispozitivului dumneavoastră.

În anumite scopuri, interesele legitime pot prima asupra consimțământului. Puteți citi mai multe informații în acest sens în Politica privind Confidențialitatea Datelor și Cookie.